When you browse on this site, cookies collect data to enhance your experience and personalize the content and advertising you see.
Visit our Privacy Policy to learn more. By continuing to use the site, you agree to this use of cookies and data.

Hourly Weather Zaragoza

Today, 11 August, Tuesday

Time Temperature Precipitation Wind Pressure Humidity
00:00 +25°C° 0.1 mm 1 mps 743 mmHg 65%
01:00 +25°C° 0.4 mm 1 mps 743 mmHg 66%
02:00 +25°C° 0.4 mm 1 mps 743 mmHg 67%
03:00 +24°C° 0.4 mm 1 mps 743 mmHg 68%
04:00 +24°C° 0.2 mm 2 mps 743 mmHg 68%
05:00 +24°C° 0.2 mm 2 mps 743 mmHg 68%
06:00 +24°C° 0.2 mm 2 mps 743 mmHg 68%
07:00 +26°C° 0.1 mm 2 mps 743 mmHg 62%
08:00 +27°C° 0.1 mm 3 mps 743 mmHg 56%
09:00 +29°C° 0.1 mm 3 mps 743 mmHg 50%
10:00 +30°C° 0.1 mm 4 mps 743 mmHg 45%
11:00 +33°C° 0.1 mm 4 mps 743 mmHg 41%
12:00 +34°C° 0.1 mm 5 mps 743 mmHg 36%
13:00 +35°C° 0 mm 5 mps 742 mmHg 34%
14:00 +35°C° 0 mm 5 mps 742 mmHg 32%
15:00 +35°C° 0 mm 6 mps 742 mmHg 29%
16:00 +34°C° 0 mm 4 mps 742 mmHg 33%
17:00 +33°C° 0 mm 3 mps 742 mmHg 37%
18:00 +31°C° 0 mm 2 mps 742 mmHg 42%
19:00 +30°C° 0 mm 2 mps 742 mmHg 44%
20:00 +29°C° 0 mm 2 mps 742 mmHg 47%
21:00 +28°C° 0 mm 2 mps 742 mmHg 50%
22:00 +27°C° 0 mm 3 mps 742 mmHg 53%
23:00 +26°C° 0 mm 3 mps 742 mmHg 56%

Tomorrow, 12 August, Wednesday

Time Temperature Precipitation Wind Pressure Humidity
00:00 +26°C° 0 mm 3 mps 743 mmHg 59%
01:00 +25°C° 0.2 mm 3 mps 742 mmHg 62%
02:00 +25°C° 0.2 mm 2 mps 742 mmHg 64%
03:00 +24°C° 0.2 mm 1 mps 742 mmHg 67%
04:00 +24°C° 0 mm 1 mps 742 mmHg 67%
05:00 +24°C° 0 mm 1 mps 742 mmHg 68%
06:00 +24°C° 0 mm 1 mps 742 mmHg 68%
07:00 +26°C° 0 mm 1 mps 742 mmHg 62%
08:00 +27°C° 0 mm 1 mps 742 mmHg 56%
09:00 +28°C° 0 mm 2 mps 742 mmHg 50%
10:00 +30°C° 0 mm 2 mps 742 mmHg 45%
11:00 +31°C° 0 mm 2 mps 742 mmHg 41%
12:00 +33°C° 0 mm 3 mps 742 mmHg 37%
13:00 +34°C° 0 mm 3 mps 741 mmHg 35%
14:00 +34°C° 0 mm 2 mps 741 mmHg 33%
15:00 +35°C° 0 mm 2 mps 741 mmHg 32%
16:00 +34°C° 0 mm 3 mps 741 mmHg 35%
17:00 +33°C° 0 mm 4 mps 741 mmHg 39%
18:00 +30°C° 0 mm 4 mps 741 mmHg 43%
19:00 +29°C° 0.4 mm 4 mps 742 mmHg 49%
20:00 +28°C° 0.4 mm 3 mps 742 mmHg 54%
21:00 +27°C° 0.4 mm 2 mps 743 mmHg 59%
22:00 +27°C° 0.1 mm 2 mps 743 mmHg 61%
23:00 +26°C° 0.1 mm 1 mps 743 mmHg 63%

Day after tomorrow, 13 August, Thursday

Time Temperature Precipitation Wind Pressure Humidity
00:00 +26°C° 0.1 mm 1 mps 743 mmHg 65%
01:00 +25°C° 0 mm 1 mps 743 mmHg 67%
02:00 +25°C° 0 mm 1 mps 743 mmHg 68%
03:00 +24°C° 0 mm 1 mps 743 mmHg 70%
04:00 +24°C° 0 mm 1 mps 743 mmHg 71%
05:00 +24°C° 0 mm 2 mps 743 mmHg 72%
06:00 +23°C° 0 mm 2 mps 743 mmHg 73%
07:00 +25°C° 0 mm 2 mps 743 mmHg 68%
08:00 +26°C° 0 mm 2 mps 744 mmHg 62%
09:00 +27°C° 0 mm 2 mps 744 mmHg 56%
10:00 +29°C° 0 mm 2 mps 743 mmHg 50%
11:00 +30°C° 0 mm 1 mps 743 mmHg 45%
12:00 +32°C° 0 mm 1 mps 743 mmHg 39%
13:00 +32°C° 0 mm 2 mps 743 mmHg 35%
14:00 +34°C° 0 mm 2 mps 743 mmHg 31%
15:00 +35°C° 0 mm 2 mps 742 mmHg 27%
16:00 +35°C° 0 mm 2 mps 743 mmHg 27%
17:00 +35°C° 0 mm 2 mps 743 mmHg 28%
18:00 +35°C° 0 mm 2 mps 743 mmHg 28%
19:00 +34°C° 0 mm 2 mps 743 mmHg 34%
20:00 +31°C° 0 mm 3 mps 744 mmHg 39%
21:00 +29°C° 0 mm 3 mps 744 mmHg 45%
22:00 +28°C° 0 mm 3 mps 744 mmHg 52%
23:00 +26°C° 0 mm 4 mps 744 mmHg 60%

14 August, Friday

Time Temperature Precipitation Wind Pressure Humidity
00:00 +23°C° 0 mm 4 mps 744 mmHg 68%
01:00 +22°C° 0 mm 3 mps 744 mmHg 70%
02:00 +22°C° 0 mm 3 mps 744 mmHg 71%
03:00 +22°C° 0 mm 3 mps 744 mmHg 73%
04:00 +21°C° 0 mm 2 mps 744 mmHg 74%
05:00 +21°C° 0 mm 2 mps 744 mmHg 75%
06:00 +21°C° 0 mm 2 mps 744 mmHg 76%
07:00 +23°C° 0 mm 2 mps 744 mmHg 72%
08:00 +24°C° 0 mm 1 mps 744 mmHg 68%
09:00 +26°C° 0 mm 1 mps 744 mmHg 64%
10:00 +27°C° 0 mm 2 mps 743 mmHg 59%
11:00 +29°C° 0 mm 2 mps 743 mmHg 53%
12:00 +31°C° 0 mm 3 mps 743 mmHg 48%
13:00 +33°C° 0 mm 3 mps 742 mmHg 42%
14:00 +35°C° 0 mm 3 mps 742 mmHg 36%
15:00 +36°C° 0 mm 4 mps 742 mmHg 30%
16:00 +35°C° 0 mm 4 mps 742 mmHg 33%
17:00 +35°C° 0 mm 5 mps 741 mmHg 35%
18:00 +35°C° 0 mm 6 mps 741 mmHg 38%
19:00 +33°C° 0 mm 5 mps 742 mmHg 44%
20:00 +32°C° 0 mm 4 mps 742 mmHg 50%
21:00 +29°C° 0 mm 4 mps 742 mmHg 56%
22:00 +28°C° 0 mm 4 mps 742 mmHg 61%
23:00 +27°C° 0 mm 3 mps 742 mmHg 66%

15 August, Saturday

Time Temperature Precipitation Wind Pressure Humidity
00:00 +26°C° 0 mm 3 mps 742 mmHg 71%
01:00 +26°C° 0 mm 3 mps 742 mmHg 74%
02:00 +25°C° 0 mm 3 mps 742 mmHg 77%
03:00 +25°C° 0 mm 2 mps 742 mmHg 80%
04:00 +25°C° 0 mm 2 mps 742 mmHg 81%
05:00 +25°C° 0 mm 1 mps 742 mmHg 82%
06:00 +24°C° 0 mm 1 mps 742 mmHg 83%
07:00 +26°C° 0 mm 1 mps 742 mmHg 76%
08:00 +27°C° 0 mm 1 mps 742 mmHg 70%
09:00 +28°C° 0 mm 1 mps 742 mmHg 64%
10:00 +30°C° 0 mm 1 mps 741 mmHg 55%
11:00 +31°C° 0 mm 1 mps 741 mmHg 46%
12:00 +34°C° 0 mm 2 mps 741 mmHg 36%
13:00 +35°C° 0 mm 2 mps 741 mmHg 31%
14:00 +36°C° 0 mm 2 mps 740 mmHg 26%
15:00 +37°C° 0 mm 2 mps 740 mmHg 21%
16:00 +37°C° 0 mm 2 mps 740 mmHg 21%
17:00 +37°C° 0 mm 2 mps 740 mmHg 20%
18:00 +36°C° 0 mm 3 mps 740 mmHg 20%
19:00 +34°C° 0 mm 4 mps 741 mmHg 29%
20:00 +30°C° 0 mm 5 mps 741 mmHg 38%
21:00 +27°C° 0 mm 6 mps 742 mmHg 47%
22:00 +26°C° 0 mm 6 mps 742 mmHg 54%
23:00 +24°C° 0 mm 6 mps 742 mmHg 61%

16 August, Sunday

Time Temperature Precipitation Wind Pressure Humidity
00:00 +23°C° 0 mm 6 mps 742 mmHg 68%
01:00 +22°C° 0 mm 6 mps 742 mmHg 69%
02:00 +21°C° 0 mm 5 mps 741 mmHg 71%
03:00 +21°C° 0 mm 5 mps 741 mmHg 73%
04:00 +21°C° 0 mm 5 mps 741 mmHg 74%
05:00 +20°C° 0 mm 5 mps 742 mmHg 76%
06:00 +20°C° 0 mm 4 mps 742 mmHg 77%
07:00 +21°C° 0 mm 4 mps 742 mmHg 70%
08:00 +23°C° 0 mm 4 mps 742 mmHg 63%
09:00 +25°C° 0 mm 4 mps 742 mmHg 56%
10:00 +27°C° 0 mm 4 mps 742 mmHg 49%
11:00 +29°C° 0 mm 3 mps 741 mmHg 42%
12:00 +30°C° 0 mm 3 mps 741 mmHg 35%
13:00 +31°C° 0 mm 2 mps 741 mmHg 32%
14:00 +32°C° 0 mm 2 mps 740 mmHg 29%
15:00 +33°C° 0 mm 1 mps 740 mmHg 25%
16:00 +33°C° 0 mm 1 mps 740 mmHg 26%
17:00 +34°C° 0 mm 2 mps 740 mmHg 27%
18:00 +34°C° 0 mm 2 mps 740 mmHg 27%
19:00 +31°C° 0 mm 2 mps 741 mmHg 34%
20:00 +30°C° 0 mm 3 mps 741 mmHg 41%
21:00 +28°C° 0 mm 3 mps 742 mmHg 48%
22:00 +27°C° 0 mm 4 mps 742 mmHg 54%
23:00 +25°C° 0 mm 4 mps 742 mmHg 60%
Show more